Back to catalog

DELTA 1 R/B

CEP 1

AliveSSO
NORAD 4794·ROCKET BODY·🇺🇸 United States

Launched Dec 11, 1970 from Vandenberg Space Force Base

Loading…

Next Passes

TLE

Source: Space-Track
1 04794U 70106B   26229.94094874 -.00000040  00000-0  17284-4 0  9995
2 04794 101.3037 235.1486 0036313 225.7188 202.2001 12.53275473939152

Track DELTA 1 R/B in real time with AllMySat

Download on the App Store